COSMOS 1704

Satellite information

Favourite Embed

Satellite Type and Status

PAYLOADIN ORBIT

Key statistics

Satellite COSMOS 1704 at a glance.

Uptime

14466

Days in orbit

Revolutions

≈ 13.7

Per day

Orbit

LEO

Low Earth Orbit

Inclination

82.9

Latest

Satellite identification and parameters

Extended collection of information and parameters for COSMOS 1704.

Object identification

Identified? True

Debris? False

Object name: COSMOS 1704

International designator: 1985-110A

Object number (NORAD): 16291

Object ID (CCSDS): 16291

Country: COMMONWEALTH OF INDEPENDENT STATES (CIS)

Current information (Y/N): Y

RCS size: LARGE

Orbital parameters

Period: 104.738 minutes

Inclination: 82.935 deg

SMA: 7360.329 km

Apoapsis: 1003.996 km

Periapsis: 960.392 km

RAAN: 20.9412 deg

Eccentricy: 0.0029621

Argument of periapsis: 302.8164 deg

Mean anomaly: 117.8848 deg

Mean motion: 13.74855059 rev/day

Mean motion (dot): 0.00000058 rev/day2

B* drag term: 0.000045579 1/REarth

Two-line elements (TLE)

Creation date: July 6, 2025, 6:05 p.m.

Reference frame: TEME

Reference center: EARTH

Epoch: July 6, 2025, 2:38 p.m. UTC

TLE line 0: 0 COSMOS 1704

TLE line 1: 1 16291U 85110A 25187.61031366 .00000058 00000-0 45579-4 0 9990

TLE line 2: 2 16291 82.9350 20.9412 0029621 302.8164 117.8848 13.74855059986456

Live tracking on map

Real-time ground track for satellite COSMOS 1704.

In-orbit conjunctions

A list of the most updated potential collisions computed for object COSMOS 1704.

Target Orbit TCA Probability of collision Miss distance Type
SL-8 R/B LEO 2024-12-03 23:04:25 0.0003391192 236.0 (m) ROCKET BODY

Associated space launch

Navigation satellite providing location information for the Tsiklon-B navigation system

COSMOS 1704 was lifted into orbit during the mission ‘Kosmos-3M | Parus 51’, on board a Kosmos-3M space rocket.

The launch took place on Nov. 28, 1985, 1:12 p.m. from 133/3 (133L).

For more information about the launch, click the button.

Launch to space Kosmos-3M | Parus 51
Kosmos-3M | Parus 51

Agency: N/A

Status: Launch Successful

Launch date: Nov. 28, 1985, 1:12 p.m. UTC

Rocket: Kosmos-3M

Launch pad: 133/3 (133L)

Location: Plesetsk Cosmodrome, Russian Federation

...

Latest news about this satellite

There are no fresh news available about this satellite. Check back as we update our databases every day.


Newsletter sign-up

Weekly statistics, charts and insights to help you stay on top of the space industry.